Home > Weather > Guiyang > Past weeks

Flag for China Past Weather in Guiyang, Guizhou, China — Yesterday and Last 2 Weeks

Now
86 °F

Partly sunny.


Feels Like: 92 °F
Forecast: 70 / 92 °F
Wind: 13 mph from Southwest

Location: Guiyang Airport

Current Time: Jul 25, 2016 at 12:26:49 PM

Latest Report: Jul 25, 2016 at 11:00 AM


Visibility: N/A

Pressure: 30.01 "Hg (26.61 "Hg at 1067m altitude)

Humidity: 62%

Dew Point: 72 °F

Location of GuiyangLocation

Past Weather in Guiyang — Graph

°F

Guiyang Temperature Yesterday

Maximum temperature yesterday: 90 °F (at 3:00 PM)
Minimum temperature yesterday: 72 °F (at 3:00 AM)
Average temperature yesterday: 79 °F

High & Low Weather Summary for the Past Weeks

 TemperatureHumidityPressure
High93 °F (Jul 10, 2:00 PM)100% (Jul 10, 11:00 PM)30.01 "Hg (Jul 10, 11:00 PM)
Low66 °F (Jul 15, 1:00 AM)49% (Jul 10, 2:00 PM)29.65 "Hg (Jul 10, 4:00 PM)
Average77 °F80%29.81 "Hg
* Reported Jul 10 11:00 AM — Jul 25 11:00 AM, Guiyang, Weather by CustomWeather, © 2016

Note: Actual official high and low records may vary slightly from our data, if they occured in-between our weather recording intervals... More about our weather records

Advertising

Guiyang Weather History for the Previous 24 Hours

Scroll right to see more
 ConditionsComfort  
Time TempWeatherWind HumidityBarometerVisibility
11:00 AM
Mon, Jul 25
86 °FPartly sunny.13 mph62%30.01 "HgN/A
10:00 AM82 °FPartly sunny.15 mph70%30.01 "HgN/A
9:00 AM81 °FPassing clouds.8 mph70%30.01 "HgN/A
8:00 AM79 °FSunny.1 mph74%29.98 "Hg10 mi
7:00 AM72 °FSunny.1 mph88%29.98 "Hg10 mi
6:00 AM70 °FClear.1 mph94%29.98 "Hg10 mi
5:00 AM70 °FClear.No wind94%29.95 "Hg10 mi
4:00 AM70 °FClear.3 mph88%29.95 "Hg10 mi
3:00 AM70 °FClear.3 mph88%29.95 "Hg10 mi
2:00 AM72 °FClear.3 mph83%29.98 "Hg10 mi
1:00 AM73 °FClear.3 mph83%29.98 "Hg10 mi
12:00 AM75 °FClear.3 mph78%29.95 "Hg10 mi
11:00 PM
Sun, Jul 24
73 °FClear.6 mph83%29.95 "Hg10 mi
10:00 PM75 °FClear.3 mph78%29.92 "Hg10 mi
9:00 PM77 °FClear.3 mph69%29.89 "Hg10 mi
8:00 PM81 °FClear.6 mph62%29.89 "Hg10 mi
7:00 PM84 °FPassing clouds.10 mph55%29.86 "HgN/A
6:00 PM86 °FPassing clouds.10 mph55%29.86 "HgN/A
5:00 PM88 °FPassing clouds.13 mph52%29.86 "HgN/A
4:00 PM88 °FPassing clouds.15 mph49%29.86 "HgN/A
3:00 PM90 °FPassing clouds.10 mph52%29.86 "HgN/A
2:00 PM86 °FScattered clouds.15 mph59%29.89 "HgN/A
1:00 PM86 °FPartly sunny.15 mph59%29.89 "HgN/A
12:00 PM84 °FPartly sunny.13 mph58%29.92 "HgN/A
Weather by CustomWeather, © 2016

See weather overviewHow to use our weather pages